{"data":{"norad_id":65132,"intl_designator":"2025-171A","name":"KUIPER-00081","alt_names":[],"object_type":"PAYLOAD","status":"ACTIVE","operator":null,"country":"US","launch_date":"2025-08-11","launch_site_code":"AFETR","launch_vehicle":null,"mission":null,"orbit_class":"UNKNOWN","rcs_meters":null,"size_class":null,"mass_kg":null,"dimensions":null,"purposes":[],"wikipedia_slug":null,"has_3d_model":false,"image_url":null,"decayed_at":null,"tle_current":{"epoch":"2026-05-25T00:44:11.455296Z","epoch_age_seconds":75674,"freshness":"FRESH","line1":"1 65132U 25171A   26145.03068814  .00001905  00000+0  27882-3 0  9995","line2":"2 65132  51.8985 170.4938 0000404  71.2214 288.8792 14.79929353 44343","mean_motion":14.79929353,"eccentricity":4.04e-5,"inclination_deg":51.8985,"raan_deg":170.4938,"arg_perigee_deg":71.2214,"mean_anomaly_deg":288.8792,"bstar":0.00027882,"rev_number":4434,"period_min":97.301941952901,"perigee_km":629.26403143458,"apogee_km":629.83025231324,"semimajor_km":7007.6841418739,"source":"CELESTRAK","updated_at":"2026-05-25T13:38:05.140399Z"}}}